Weather in Sinev

Ukraine / Rovno District     50°37′21″N   26°45′05″E
temp.,
°C
wind,
m/s
gust,
m/s
humid.,
%
clouds,
%
prec.,
mm/h
press.,
hPa
HPBL,
m
21 april, wed
wed2100:00+5nnw2290100 0.0 101240
03:00+4nw239311 0.0 101236
06:00+4w349295 0.0 101268
09:00+6w2484100 0.0 1013204
12:00+11wsw456974 0.0 1012993
15:00+13w5756100 1.2 10121476
18:00+13wsw365840 0.9 10111387
21:00+8sw478469 2.0 1013123
22 april, thu
thu2200:00+7sw4108591 1.0 1013195
03:00+8ssw4108790 1.2 1013323
06:00+6sw411935 0.0 1014245
09:00+10sw597835 0.0 1014422
12:00+14wsw6864100 1.0 10131544
15:00+11w787896 2.3 10141004
18:00+11wsw467486 1.8 1014881
21:00+8nw4694100 5.3 1015365
23 april, fri
fri2300:00+5w3790100 3.5 1016439
03:00+4w41091100 3.5 1016305
06:00+3wnw3888100 0.0 1017323
09:00+4wnw5877100 0.0 1018556
12:00+8w795171 0.0 10171795
15:00+8wnw895959 0.6 10171525
18:00+7wnw785488 0.2 10171540
21:00+4wsw35740 0.3 101781
24 april, sat
sat2400:00+3wsw51179100 0.0 1017347
03:00+2w71181100 0.0 1017826
06:00+2wnw8128459 0.3 10181023
09:00+3wnw7107115 0.3 10191063
12:00+5wnw7105377 0.1 10191820
15:00+7wnw8105498 1.1 10191957
18:00+6wnw695999 0.9 10181533
21:00+3wnw4980100 1.4 1020310
25 april, sun
sun2500:00+2w4118496 0.4 1020318
03:000w49895 0.4 1020195
06:000w41088100 0.0 1020347
09:00+2wnw610685 0.0 1020977
12:00+4wnw7959100 0.1 10201716
15:00+5wnw7956100 0.3 10201658
18:00+6wnw795478 0.1 10191670
21:00+2wsw498180 0.4 1019184